373  
ASUS44 KFWD 110015  
RWRFWD  
NORTH TEXAS HOURLY WEATHER ROUNDUP  
NATIONAL WEATHER SERVICE FORT WORTH TX  
600 PM CST FRI NOV 10 2017  
 
NOTE: "FAIR" INDICATES FEW OR NO CLOUDS BELOW 12,000 FEET WITH NO  
SIGNIFICANT WEATHER AND/OR S TO VISIBILITY
.  
 
TXZ118-119-110100-  
DALLAS/FORT WORTH METROPLEX  
 
CITY SKY/WX TMP DP RH WIND PRES REMARKS
 
DFW AIRPORT MOCLDY 58 45 62 S7 30.18S  
6HR MIN TEMP: 58; 6HR MAX TEMP: 65;  
 
DALLAS LOVE MOCLDY 62 41 46 S7 30.19S  
6HR MIN TEMP: 60; 6HR MAX TEMP: 64;  
 
FTW MEACHAM MOCLDY 59 49 69 SE5 30.19R  
6HR MIN TEMP: 59; 6HR MAX TEMP: 64;  
 
DAL-EXECUTIVE MOCLDY 58 43 57 SE5 30.19R  
6HR MIN TEMP: 57; 6HR MAX TEMP: 63;  
 
FTW-ALLIANCE PTCLDY 56 46 69 S5 30.19R  
6HR MIN TEMP: 56; 6HR MAX TEMP: 64;  
 
FTW-NAS-JRB CLOUDY 61 46 57 SE8 30.19S  
6HR MIN TEMP: 60; 6HR MAX TEMP: 64;  
 
FTW-SPINKS CLOUDY 61 48 63 CALM 30.21R  
ARLINGTON CLOUDY 60 47 61 SE3 30.20R  
6HR MIN TEMP: 57; 6HR MAX TEMP: 62;  
 
GRAND PRAIRIE CLOUDY 61 45 55 CALM 30.21R  
ADDISON PTCLDY 57 43 58 S6 30.19S  
MESQUITE CLEAR 57 39 51 E3 30.21R  
LANCASTER CLOUDY 58 44 59 CALM 30.20S  
6HR MIN TEMP: 58; 6HR MAX TEMP: 63;  
 

 
 
TXZ091>094-102>105-117-120-121-131>134-110100-  
NORTH CENTRAL TEXAS  
 
CITY SKY/WX TMP DP RH WIND PRES REMARKS
 
SHRMAN/DENISON CLEAR 56 37 48 SE5 30.21S  
6HR MIN TEMP: 55; 6HR MAX TEMP: 64;  
 
GAINESVILLE PTCLDY 55 44 67 SE3 30.21S  
6HR MIN TEMP: 55; 6HR MAX TEMP: 63;  
 
BOWIE MOCLDY 56 47 70 S5 30.18R  
6HR MIN TEMP: 54; 6HR MAX TEMP: 60;  
 
BRIDGEPORT MOCLDY 56 47 70 CALM 30.20R  
6HR MIN TEMP: 54; 6HR MAX TEMP: 60;  
 
DECATUR PTCLDY 56 46 69 SE6 30.18R  
6HR MIN TEMP: 54; 6HR MAX TEMP: 62;  
 
DENTON PTCLDY 56 46 69 S5 30.19S  
6HR MIN TEMP: 56; 6HR MAX TEMP: 65;  
 
MCKINNEY CLEAR 58 41 53 SE5 30.20R  
6HR MIN TEMP: 58; 6HR MAX TEMP: 65;  
 
BONHAM CLOUDY 56 37 49 E5 30.21R  
6HR MIN TEMP: 55; 6HR MAX TEMP: 64;  
 
GREENVILLE CLOUDY 57 43 58 CALM 30.21S  
ROCKWALL CLEAR 58 41 53 CALM 30.20S HAZE  
6HR MIN TEMP: 58; 6HR MAX TEMP: 65;  
 
TERRELL CLEAR 60 38 43 E5 30.21R  
6HR MIN TEMP: 60; 6HR MAX TEMP: 67;  
 
WAXAHACHIE MOCLDY 58 48 67 S3 30.21R  
6HR MIN TEMP: 58; 6HR MAX TEMP: 64;  
 
CLEBURNE CLOUDY 59 50 72 S9 30.21S  
GRANBURY CLOUDY 60 48 64 SE7 30.20S  
6HR MIN TEMP: 57; 6HR MAX TEMP: 62;  
 

 
 
TXZ083>090-098>101-113>116-127>130-139>142-154-155-110100-  
WESTERN NORTH TEXAS  
 
CITY SKY/WX TMP DP RH WIND PRES REMARKS
 
WICHITA FALLS CLOUDY 55 46 71 S9 30.16S  
6HR MIN TEMP: 50; 6HR MAX TEMP: 56;  
 
WF-KICKAPOO CLOUDY 56 47 74 SE13 30.20R  
6HR MIN TEMP: 50; 6HR MAX TEMP: 56;  
 
VERNON CLOUDY 55 43 63 SE9 30.16S  
6HR MIN TEMP: 32; 6HR MAX TEMP: 67;  
 
ABILENE CLOUDY 52 51 97 SE13 30.15F  
6HR MIN TEMP: 51; 6HR MAX TEMP: 55;  
 
ABILENE-DYESS CLOUDY 53 53 100 SE7 30.15R  
6HR MIN TEMP: 53; 6HR MAX TEMP: 57;  
 
GRAHAM N/A 56 49 78 SE6 30.16S  
6HR MIN TEMP: 52; 6HR MAX TEMP: 58;  
 
BRECKENRIDGE CLOUDY 57 49 76 S8 30.18R  
6HR MIN TEMP: 56; 6HR MAX TEMP: 61;  
 
CISCO CLOUDY 54 50 87 SE10 30.18S  
EASTLAND CLOUDY 53 50 87 S8 30.18S  
6HR MIN TEMP: 53; 6HR MAX TEMP: 56;  
 
RANGER CLOUDY 54 50 86 S6 30.18S  
6HR MIN TEMP: 38; 6HR MAX TEMP: 58;  
 
MINERAL WELLS CLOUDY 57 47 69 SE6 30.17S  
6HR MIN TEMP: 53; 6HR MAX TEMP: 61;  
 
STEPHENVILLE CLOUDY 56 49 75 SE3 30.21S  
6HR MIN TEMP: 53; 6HR MAX TEMP: 58;  
 
COMANCHE CLOUDY 55 52 88 SE6 30.19S  
BROWNWOOD CLOUDY 55 50 82 SE6 30.19R  
COLEMAN CLOUDY 54 51 90 S6 30.18S  
6HR MIN TEMP: 52; 6HR MAX TEMP: 55;  
 

 
 
TXZ143>147-156>162-174-175-110100-  
CENTRAL TEXAS  
 
CITY SKY/WX TMP DP RH WIND PRES REMARKS
 
WACO CLOUDY 61 49 64 CALM 30.20R  
6HR MIN TEMP: 57; 6HR MAX TEMP: 63;  
 
WACO-TSTC CLOUDY 63 50 63 CALM 30.20S  
WACO-MCGREGOR CLOUDY 60 52 74 SE5 30.20S  
6HR MIN TEMP: 58; 6HR MAX TEMP: 63;  
 
HILLSBORO CLOUDY 60 51 73 CALM 30.20R  
6HR MIN TEMP: 58; 6HR MAX TEMP: 64;  
 
CORSICANA CLOUDY 59 43 55 E3 30.21R  
6HR MIN TEMP: 58; 6HR MAX TEMP: 66;  
 
MEXIA CLOUDY 60 42 52 E8 30.19R  
6HR MIN TEMP: 59; 6HR MAX TEMP: 66;  
 
HEARNE CLOUDY 62 49 62 CALM 30.21R  
6HR MIN TEMP: 60; 6HR MAX TEMP: 66;  
 
CAMERON CLOUDY 61 50 65 S3 30.20S  
6HR MIN TEMP: 60; 6HR MAX TEMP: 66;  
 
TEMPLE CLOUDY 60 50 69 S6 30.20S  
6HR MIN TEMP: 58; 6HR MAX TEMP: 63;  
 
KILLEEN CLOUDY 58 50 74 E5 30.18S  
6HR MIN TEMP: 55; 6HR MAX TEMP: 60;  
 
KILLEEN-SKYLRK CLOUDY 59 50 72 S5 30.20S  
6HR MIN TEMP: 57; 6HR MAX TEMP: 62;  
 
FORT HOOD CLOUDY 58 49 71 SE6 30.16R  
6HR MIN TEMP: 55; 6HR MAX TEMP: 60;  
 
GATESVILLE CLOUDY 57 50 77 CALM 30.21S  
HAMILTON CLOUDY 57 51 79 SE5 30.19S  
6HR MIN TEMP: 52; 6HR MAX TEMP: 58;  
 
LAMPASAS CLOUDY 58 52 80 SE5 30.18S  
6HR MIN TEMP: 55; 6HR MAX TEMP: 60;  
 

 
 
TXZ095>097-106>112-122>126-135>138-148>153-164>167-110100-  
EAST TEXAS  
 
CITY SKY/WX TMP DP RH WIND PRES REMARKS
 
PARIS CLOUDY 55 35 47 E7 30.23R  
6HR MIN TEMP: 55; 6HR MAX TEMP: 65;  
 
SULPHUR SPRNGS CLEAR 58 36 43 CALM 30.23R  
6HR MIN TEMP: 58; 6HR MAX TEMP: 66;  
 
MOUNT PLEASANT CLOUDY 56 38 49 E5 30.23S  
6HR MIN TEMP: 56; 6HR MAX TEMP: 65;  
 
GILMER CLEAR 56 41 57 CALM 30.22S  
6HR MIN TEMP: 56; 6HR MAX TEMP: 64;  
 
MINEOLA PTCLDY 54 41 62 CALM 30.21R  
TYLER CLOUDY 57 40 52 SE7 30.20S  
6HR MIN TEMP: 57; 6HR MAX TEMP: 66;  
 
LONGVIEW NOT AVBL  
MARSHALL CLEAR 50 44 79 CALM 30.25S  
6HR MIN TEMP: 50; 6HR MAX TEMP: 65;  
 
ATHENS MOCLDY 55 37 50 CALM 30.19S  
PALESTINE CLOUDY 60 48 65 CALM 30.22R  
JACKSONVILLE CLOUDY 59 44 58 CALM 30.23R  
HENDERSON CLEAR 54 44 70 CALM 30.23S  
6HR MIN TEMP: 53; 6HR MAX TEMP: 66;  
 
CENTER CLEAR 53 45 75 CALM 30.23S  
6HR MIN TEMP: 53; 6HR MAX TEMP: 65;  
 
NACOGDOCHES MOCLDY 55 48 77 E5 30.22S  
6HR MIN TEMP: 55; 6HR MAX TEMP: 68;  
 
LUFKIN MOCLDY 56 50 80 CALM 30.21S  
6HR MIN TEMP: 56; 6HR MAX TEMP: 68;  
 

 
 
SUPPLEMENTAL OBSERVATIONS (NWS FORT WORTH AREA)  
 
CITY SKY/WX TMP DP RH WIND PRES REMARKS
 
CADDO GRASSLND N/A 55 37 50 E2 N/A  
 
CLICK HERE TO GO TO PREVIOUS BULLETINS.

The Nexlab TX Page Main Text Page